1530658800.76,16635,16.31,74090.8,0.35,-22.63,-23.03,0,*4B
1530658801.98,16636,16.31,74082.3,0.35,-22.67,-23.19,0,*47
1530658803.25,16637,16.31,74082.5,0.33,-22.73,-23.19,0,*45
1530658804.47,16638,16.31,74086.3,0.35,-22.67,-23.19,0,*49
1530658805.68,16639,16.31,74090.5,0.33,-22.41,-22.93,0,*49
1530658806.91,16640,16.31,74092.0,0.35,-22.47,-22.87,0,*42
1530658808.1,16641,16.31,74096.8,0.35,-22.37,-22.87,0,*44
1530658809.33,16642,16.31,74098.5,0.35,-22.53,-23.03,0,*48
1530658810.52,16643,16.25,74100.3,0.35,-22.63,-22.97,0,*46
1530658811.72,16644,16.31,74102.3,0.35,-22.63,-23.13,0,*4C
1530658812.92,16645,16.31,74098.0,0.35,-22.53,-23.13,0,*4E
1530658814.11,16646,16.31,74100.8,0.35,-22.63,-23.13,0,*4E
1530658815.3,16647,16.31,74100.5,0.35,-22.63,-23.13,0,*4F
1530658816.52,16648,16.31,74098.8,0.33,-22.57,-23.09,0,*4A
1530658817.72,16649,16.31,74098.5,0.35,-22.37,-22.97,0,*4D
1530658818.97,16650,16.31,74094.5,0.33,-22.53,-23.03,0,*4D
1530658820.22,16651,16.31,74096.5,0.35,-22.47,-23.03,0,*4F
1530658821.44,16652,16.31,74094.5,0.33,-22.53,-23.09,0,*45
1530658822.66,16653,16.31,74092.5,0.35,-22.63,-23.19,0,*40
1530658823.85,16654,16.31,74088.5,0.35,-22.63,-23.13,0,*4D
1530658825.1,16655,16.31,74094.8,0.33,-22.57,-23.19,0,*47
1530658826.3,16656,16.31,74100.8,0.35,-22.53,-23.13,0,*4C
1530658827.54,16657,16.25,74096.3,0.33,-22.67,-23.23,0,*4F
1530658828.77,16658,16.31,74098.3,0.33,-22.53,-23.09,0,*4F
1530658829.99,16659,16.31,74096.0,0.35,-22.63,-23.19,0,*4A
1530658831.23,16660,16.31,74096.8,0.35,-22.77,-23.33,0,*4D
1530658832.48,16661,16.31,74094.0,0.33,-22.67,-23.19,0,*43
1530658833.71,16662,16.31,74102.3,0.33,-22.67,-23.33,0,*48
1530658834.98,16663,16.31,74100.0,0.33,-22.73,-23.33,0,*4C
1530658836.22,16664,16.31,74100.3,0.33,-22.67,-23.19,0,*46
1530658837.46,16665,16.31,74100.5,0.33,-22.67,-23.19,0,*47
1530658838.7,16666,16.31,74096.0,0.29,-22.63,-23.23,0,*42
1530658839.93,16667,16.31,74098.0,0.33,-22.57,-23.09,0,*47
1530658841.14,16668,16.25,74096.8,0.33,-22.67,-23.09,0,*4B
1530658842.37,16669,16.31,74098.8,0.33,-22.57,-23.09,0,*49
1530658843.59,16670,16.31,74098.3,0.33,-22.57,-23.09,0,*41
1530658844.79,16671,16.31,74094.3,0.31,-22.57,-23.09,0,*42
1530658845.99,16672,16.31,74094.5,0.31,-22.57,-23.09,0,*41
1530658847.19,16673,16.31,74090.0,0.31,-22.53,-22.93,0,*46
1530658848.39,16674,16.31,74098.8,0.31,-22.53,-23.09,0,*43
1530658849.6,16675,16.25,74096.5,0.31,-22.53,-23.09,0,*42
1530658850.82,16676,16.31,74098.0,0.31,-22.53,-23.03,0,*4B
1530658852.02,16677,16.31,74098.0,0.31,-22.53,-23.09,0,*40
1530658853.24,16678,16.31,74098.0,0.31,-22.41,-23.03,0,*46
1530658854.49,16679,16.31,74098.5,0.29,-22.47,-22.97,0,*44
1530658855.71,16680,16.31,74102.5,0.31,-22.53,-23.03,0,*42
1530658856.91,16681,16.25,74098.3,0.31,-22.67,-23.09,0,*4E
1530658858.1,16682,16.31,74100.8,0.31,-22.67,-23.09,0,*4D
1530658859.35,16683,16.31,74100.8,0.31,-22.73,-23.23,0,*41
1530658860.59,16684,16.31,74100.3,0.33,-22.67,-23.23,0,*41
1530658861.79,16685,16.31,74102.0,0.31,-22.41,-23.09,0,*4E
1530658862.98,16686,16.31,74102.5,0.31,-22.41,-22.87,0,*4A
1530658864.22,16687,16.25,74098.0,0.31,-22.21,-22.73,0,*46
1530658865.42,16688,16.25,74094.5,0.31,-22.07,-22.73,0,*4D
1530658866.69,16689,16.31,74092.5,0.33,-22.21,-22.73,0,*4A
1530658867.94,16690,16.31,74094.0,0.33,-22.53,-23.03,0,*41
1530658869.16,16691,16.31,74094.0,0.33,-22.53,-23.09,0,*4A
1530658870.38,16692,16.31,74092.8,0.33,-22.57,-23.09,0,*4D
1530658871.62,16693,16.31,74094.3,0.33,-22.67,-23.33,0,*46
1530658872.89,16694,16.31,74094.0,0.33,-22.73,-23.19,0,*4C
1530658874.15,16695,16.25,74090.5,0.33,-22.73,-23.19,0,*4D
1530658875.39,16696,16.31,74094.3,0.33,-22.67,-23.23,0,*42
1530658876.64,16697,16.31,74098.0,0.33,-22.67,-23.19,0,*4A
1530658877.87,16698,16.25,74098.8,0.33,-22.67,-23.33,0,*4D
1530658879.12,16699,16.31,74098.5,0.31,-22.73,-23.23,0,*4A
1530658880.36,16700,16.31,74098.5,0.31,-22.73,-23.23,0,*4B
1530658881.61,16701,16.31,74098.8,0.33,-22.67,-23.23,0,*4D
1530658882.88,16702,16.31,74100.3,0.29,-22.77,-23.29,0,*4E
1530658884.09,16703,16.25,74098.8,0.29,-22.63,-23.09,0,*48
1530658885.33,16704,16.25,74094.5,0.29,-22.73,-23.13,0,*45
1530658886.58,16705,16.25,74092.3,0.33,-22.67,-23.23,0,*49
1530658887.84,16706,16.31,74098.5,0.29,-22.73,-23.29,0,*4E
1530658889.11,16707,16.31,74098.0,0.29,-22.73,-23.23,0,*45
1530658890.33,16708,16.31,74100.8,0.31,-22.57,-23.03,0,*47
1530658891.59,16709,16.31,74098.8,0.29,-22.47,-23.09,0,*44
1530658892.79,16710,16.31,74100.3,0.31,-22.57,-23.09,0,*44
1530658894.0,16711,16.31,74098.3,0.31,-22.41,-23.03,0,*48
1530658895.2,16712,16.31,74100.5,0.31,-22.41,-23.09,0,*41
1530658896.43,16713,16.31,74102.5,0.29,-22.57,-23.09,0,*4E
1530658897.62,16714,16.31,74100.5,0.31,-22.67,-23.09,0,*43
1530658898.82,16715,16.31,74096.8,0.31,-22.57,-23.09,0,*41
1530658900.04,16716,16.31,74100.3,0.29,-22.63,-23.13,0,*47
1530658901.26,16717,16.25,74096.8,0.31,-22.57,-23.03,0,*49
1530658902.46,16718,16.31,74098.5,0.31,-22.57,-23.09,0,*4C
1530658903.66,16719,16.31,74100.3,0.31,-22.37,-22.93,0,*49
1530658904.91,16720,16.31,74096.3,0.29,-22.47,-22.93,0,*4D
1530658906.12,16721,16.31,74096.3,0.31,-22.27,-22.73,0,*4D
1530658907.32,16722,16.31,74098.8,0.31,-22.37,-22.93,0,*41
1530658908.56,16723,16.31,74098.5,0.31,-22.21,-22.77,0,*4D
1530658909.79,16724,16.31,74098.3,0.31,-22.37,-22.77,0,*4D
1530658910.98,16725,16.31,74098.5,0.31,-22.11,-22.67,0,*49
1530658912.22,16726,16.25,74096.3,0.31,-22.21,-22.73,0,*4C
1530658913.43,16727,16.31,74092.0,0.31,-22.21,-22.67,0,*48
1530658914.68,16728,16.31,74092.3,0.31,-22.21,-22.77,0,*46
1530658915.9,16729,16.25,74090.8,0.31,-22.57,-23.03,0,*44
1530658917.12,16730,16.31,74094.8,0.33,-22.67,-23.09,0,*47
1530658918.34,16731,16.31,74092.3,0.31,-22.67,-23.19,0,*45
1530658919.56,16732,16.31,74094.5,0.31,-22.67,-23.19,0,*46
1530658920.78,16733,16.25,74094.3,0.31,-22.57,-23.19,0,*44
1530658922.0,16734,16.31,74096.5,0.31,-22.67,-23.23,0,*49
1530658923.22,16735,16.25,74096.5,0.31,-22.67,-23.23,0,*48
1530658924.45,16736,16.31,74098.0,0.31,-22.57,-23.19,0,*41
1530658925.67,16737,16.31,74096.3,0.31,-22.67,-23.19,0,*43
1530658926.91,16738,16.25,74094.0,0.31,-22.73,-23.23,0,*40
1530658928.13,16739,16.31,74092.5,0.31,-22.67,-23.19,0,*4D
1530658929.38,16740,16.31,74098.3,0.29,-22.63,-23.23,0,*47
1530658930.58,16741,16.31,74094.5,0.31,-22.57,-23.09,0,*40
1530658931.78,16742,16.31,74094.0,0.31,-22.53,-23.09,0,*47
1530658932.98,16743,16.31,74088.0,0.31,-22.53,-22.93,0,*44
1530658934.2,16744,16.31,74092.3,0.33,-22.53,-23.09,0,*43
1530658935.4,16745,16.31,74088.3,0.31,-22.57,-23.09,0,*44
1530658936.64,16746,16.25,74088.0,0.29,-22.73,-23.13,0,*43
1530658937.92,16747,16.31,74094.0,0.29,-22.77,-23.33,0,*44
1530658939.14,16748,16.31,74092.0,0.31,-22.57,-23.19,0,*48
1530658940.34,16749,16.31,74092.0,0.31,-22.53,-23.09,0,*4C
1530658941.58,16750,16.31,74094.3,0.29,-22.73,-23.13,0,*44
1530658942.78,16751,16.31,74092.0,0.31,-22.67,-23.09,0,*42
1530658944.0,16752,16.31,74092.5,0.31,-22.67,-23.19,0,*40
1530658945.27,16753,16.31,74100.5,0.29,-22.73,-23.23,0,*44
1530658946.49,16754,16.25,74094.8,0.31,-22.53,-23.03,0,*4A
1530658947.69,16755,16.25,74090.8,0.31,-22.57,-23.13,0,*4E
1530658948.91,16756,16.25,74092.3,0.31,-22.63,-23.23,0,*49
1530658950.18,16757,16.31,74098.0,0.29,-22.73,-23.23,0,*40
1530658951.42,16758,16.31,74096.3,0.29,-22.73,-23.13,0,*4C
1530658952.61,16759,16.31,74098.8,0.31,-22.67,-23.13,0,*41
1530658953.88,16760,16.25,74094.8,0.29,-22.73,-23.23,0,*44
1530658955.11,16761,16.31,74094.5,0.29,-22.57,-23.13,0,*40
1530658956.3,16762,16.31,74098.8,0.31,-22.67,-23.09,0,*42
1530658957.52,16763,16.31,74098.3,0.29,-22.63,-23.09,0,*4E
1530658958.72,16764,16.31,74100.3,0.31,-22.57,-23.09,0,*47
1530658959.92,16765,16.25,74092.5,0.31,-22.57,-23.09,0,*46
1530658961.14,16766,16.31,74094.5,0.29,-22.63,-23.09,0,*4B
1530658962.39,16767,16.31,74096.8,0.29,-22.47,-22.97,0,*4A
1530658963.58,16768,16.31,74092.0,0.31,-22.27,-22.87,0,*4B
1530658964.78,16769,16.31,74088.0,0.31,-22.41,-22.93,0,*4F
1530658965.98,16770,16.31,74084.3,0.31,-22.53,-23.09,0,*46
1530658967.19,16771,16.31,74086.8,0.31,-22.73,-23.13,0,*4E
1530658968.41,16772,16.31,74090.5,0.31,-22.67,-23.23,0,*4B
1530658969.63,16773,16.31,74092.8,0.31,-22.67,-23.19,0,*43
1530658970.86,16774,16.31,74092.0,0.31,-22.57,-23.03,0,*4C
1530658972.07,16775,16.25,74086.3,0.29,-22.63,-23.13,0,*42
1530658973.29,16776,16.25,74086.8,0.29,-22.63,-23.13,0,*41
1530658974.53,16777,16.25,74084.0,0.29,-22.73,-23.13,0,*41
1530658975.8,16778,16.31,74086.5,0.29,-22.73,-23.23,0,*4D
1530658977.06,16779,16.31,74088.0,0.29,-22.73,-23.29,0,*46
1530658978.32,16780,16.31,74086.8,0.29,-22.73,-23.29,0,*40
1530658979.59,16781,16.31,74086.8,0.29,-22.73,-23.29,0,*41
1530658980.83,16782,16.31,74084.8,0.29,-22.77,-23.39,0,*47
1530658982.08,16783,16.31,74082.5,0.29,-22.77,-23.39,0,*46
1530658983.35,16784,16.25,74080.3,0.29,-22.77,-23.29,0,*40
1530658984.6,16785,16.31,74082.3,0.27,-22.77,-23.23,0,*45
1530658985.82,16786,16.31,74078.5,0.27,-22.47,-23.13,0,*46
1530658987.02,16787,16.31,74076.3,0.31,-22.41,-22.93,0,*4F
1530658988.24,16788,16.31,74064.8,0.29,-22.57,-22.97,0,*4A
1530658989.5,16789,16.25,74072.8,0.29,-22.47,-23.09,0,*4C
1530658990.71,16790,16.31,74086.3,0.29,-22.41,-22.97,0,*44
1530658991.94,16791,16.25,74084.5,0.29,-22.57,-23.13,0,*4F
1530658993.19,16792,16.31,74086.5,0.29,-22.47,-23.09,0,*46
1530658994.44,16793,16.25,74080.3,0.29,-22.47,-22.97,0,*41
1530658995.69,16794,16.25,74078.3,0.29,-22.47,-22.93,0,*42
1530658996.92,16795,16.31,74078.0,0.29,-22.57,-23.09,0,*40
1530658998.17,16796,16.25,74082.8,0.29,-22.47,-23.09,0,*42
1530658999.38,16797,16.31,74084.5,0.29,-22.27,-22.83,0,*46
1530659000.6,16798,16.31,74084.8,0.29,-22.41,-22.93,0,*48
1530659001.85,16799,16.31,74088.5,0.29,-22.47,-22.93,0,*4F
1530659003.07,16800,16.31,74090.5,0.29,-22.41,-22.97,0,*42
1530659004.32,16801,16.25,74088.8,0.29,-22.31,-22.93,0,*40
1530659005.55,16802,16.31,74084.3,0.29,-22.57,-23.09,0,*41
1530659006.77,16803,16.31,74084.5,0.29,-22.57,-23.09,0,*40
1530659007.99,16804,16.31,74084.5,0.29,-22.63,-23.13,0,*4B
1530659009.23,16805,16.31,74088.3,0.29,-22.73,-23.13,0,*4B
1530659010.45,16806,16.25,74084.5,0.29,-22.41,-22.93,0,*40
1530659011.67,16807,16.31,74090.8,0.29,-22.41,-22.97,0,*45
1530659012.89,16808,16.25,74082.5,0.29,-22.63,-23.09,0,*4C
1530659014.14,16809,16.25,74080.3,0.29,-22.47,-22.93,0,*49
1530659015.33,16810,16.31,74082.0,0.31,-22.37,-22.87,0,*4A
1530659016.55,16811,16.25,74078.5,0.29,-22.41,-22.83,0,*47
1530659017.79,16812,16.31,74086.3,0.29,-22.31,-22.83,0,*43
1530659018.99,16813,16.25,74084.3,0.31,-22.37,-22.87,0,*49
1530659020.21,16814,16.31,74092.5,0.31,-22.53,-23.03,0,*41
1530659021.44,16815,16.25,74094.0,0.29,-22.57,-23.09,0,*47
1530659022.68,16816,16.25,74094.0,0.29,-22.27,-22.77,0,*4B
1530659023.87,16817,16.25,74094.0,0.31,-22.27,-22.83,0,*48
1530659025.07,16818,16.31,74102.5,0.31,-22.27,-22.87,0,*43
1530659026.28,16819,16.31,74096.0,0.31,-22.11,-22.77,0,*48
1530659027.52,16820,16.31,74098.0,0.29,-22.11,-22.73,0,*4F
1530659028.74,16821,16.31,74096.0,0.31,-22.27,-22.73,0,*42
1530659029.99,16822,16.25,74090.3,0.29,-22.47,-22.93,0,*40
1530659031.23,16823,16.31,74092.3,0.29,-22.31,-22.83,0,*41
1530659032.45,16824,16.25,74090.3,0.31,-22.37,-22.77,0,*42
1530659033.65,16825,16.25,74092.3,0.31,-22.37,-22.87,0,*4C
1530659034.86,16826,16.25,74098.8,0.29,-22.41,-22.83,0,*43
1530659036.11,16827,16.31,74104.3,0.29,-22.27,-22.77,0,*49
1530659037.36,16828,16.25,74100.5,0.29,-22.17,-22.63,0,*40
1530659038.57,16829,16.31,74102.8,0.31,-22.11,-22.73,0,*4F
1530659039.81,16830,16.31,74102.8,0.29,-22.03,-22.73,0,*4D
1530659041.03,16831,16.31,74100.8,0.31,-21.97,-22.57,0,*4D
1530659042.28,16832,16.25,74100.8,0.29,-21.77,-22.47,0,*48
1530659043.53,16833,16.31,74100.5,0.29,-21.47,-22.17,0,*4F
1530659044.72,16834,16.31,74096.0,0.31,-21.77,-22.37,0,*40
1530659045.93,16835,16.31,74096.3,0.31,-22.11,-22.73,0,*42
1530659047.17,16836,16.25,74092.5,0.33,-22.11,-22.73,0,*43
1530659048.4,16837,16.25,74092.3,0.33,-22.07,-22.73,0,*45
1530659049.64,16838,16.31,74098.0,0.33,-22.11,-22.77,0,*49
1530659050.88,16839,16.31,74100.8,0.33,-21.97,-22.57,0,*47
1530659052.1,16840,16.25,74098.8,0.33,-21.73,-22.27,0,*44
1530659053.32,16841,16.25,74092.5,0.35,-21.73,-22.17,0,*40
1530659054.54,16842,16.31,74088.8,0.33,-21.77,-22.27,0,*42
1530659055.73,16843,16.31,74086.8,0.35,-21.39,-21.93,0,*43
1530659056.95,16844,16.25,74082.8,0.35,-21.57,-22.03,0,*46
1530659058.17,16845,16.31,74080.0,0.39,-21.67,-22.27,0,*4E
1530659059.39,16846,16.25,74068.8,0.39,-22.17,-22.67,0,*4D
1530659060.59,16847,16.25,74070.0,0.39,-22.41,-22.97,0,*40
1530659061.83,16848,16.31,74074.5,0.37,-22.63,-23.03,0,*4D
1530659063.02,16849,16.25,74080.5,0.39,-22.63,-23.09,0,*48
1530659064.22,16850,16.25,74086.0,0.39,-22.57,-22.97,0,*41
1530659065.46,16851,16.31,74088.3,0.37,-22.63,-23.03,0,*45
1530659066.69,16852,16.25,74084.0,0.37,-22.63,-23.03,0,*46
1530659067.89,16853,16.25,74086.8,0.39,-22.57,-22.97,0,*42
1530659069.14,16854,16.31,74090.8,0.37,-22.47,-22.97,0,*4A
1530659070.38,16855,16.31,74090.8,0.37,-22.31,-22.83,0,*4F
1530659071.6,16856,16.25,74088.0,0.39,-22.11,-22.47,0,*48
1530659072.85,16857,16.25,74096.0,0.37,-22.47,-22.83,0,*4C
1530659074.09,16858,16.25,74094.8,0.37,-22.03,-22.47,0,*4B
1530659075.34,16859,16.25,74090.3,0.39,-21.87,-22.31,0,*4A
1530659076.61,16860,16.25,74080.3,0.37,-21.87,-22.47,0,*4F
1530659077.83,16861,16.31,74078.0,0.39,-21.83,-22.41,0,*42
1530659079.07,16862,16.25,74072.0,0.37,-22.03,-22.47,0,*42
1530659080.28,16863,16.25,74084.0,0.39,-21.97,-22.41,0,*45
1530659081.49,16864,16.25,74082.5,0.41,-21.77,-22.27,0,*43
1530659082.7,16865,16.31,74082.5,0.41,-22.07,-22.53,0,*45
1530659083.94,16866,16.31,74086.5,0.41,-22.37,-22.77,0,*43
1530659085.17,16867,16.31,74080.0,0.41,-22.27,-22.73,0,*47
1530659086.41,16868,16.25,74082.8,0.41,-22.27,-22.77,0,*4C
1530659087.63,16869,16.31,74086.8,0.41,-22.53,-22.93,0,*44
1530659088.84,16870,16.25,74084.3,0.41,-22.41,-22.93,0,*4F
1530659090.05,16871,16.31,74090.3,0.41,-22.41,-22.87,0,*4B
1530659091.28,16872,16.25,74088.5,0.41,-21.97,-22.41,0,*4A
1530659092.52,16873,16.31,74088.5,0.41,-21.83,-22.27,0,*4E
1530659093.73,16874,16.25,74086.3,0.41,-22.11,-22.53,0,*42
1530659094.95,16875,16.25,74088.3,0.41,-22.37,-22.93,0,*4B
1530659096.16,16876,16.25,74090.0,0.41,-22.41,-22.93,0,*49
1530659097.4,16877,16.25,74094.5,0.41,-22.63,-23.03,0,*40
1530659098.61,16878,16.25,74094.8,0.41,-22.37,-22.87,0,*43
1530659099.83,16879,16.25,74094.0,0.41,-22.53,-22.93,0,*45
1530659101.07,16880,16.25,74092.5,0.41,-22.27,-22.77,0,*4A
1530659102.28,16881,16.25,74088.0,0.41,-22.37,-22.87,0,*45
1530659103.5,16882,16.25,74088.8,0.41,-22.53,-22.93,0,*41
1530659104.71,16883,16.31,74090.8,0.41,-22.41,-22.93,0,*43
1530659105.93,16884,16.31,74094.5,0.41,-22.53,-22.93,0,*47
1530659107.12,16885,16.25,74090.3,0.39,-22.63,-23.13,0,*43
1530659108.32,16886,16.25,74088.5,0.39,-22.57,-23.09,0,*4C
1530659109.57,16887,16.25,74092.8,0.41,-22.53,-23.03,0,*4C
1530659110.77,16888,16.31,74098.8,0.39,-22.57,-23.09,0,*42
1530659111.98,16889,16.31,74096.0,0.39,-22.83,-23.29,0,*48
1530659113.22,16890,16.25,74090.5,0.37,-22.67,-23.29,0,*44
1530659114.46,16891,16.25,74092.5,0.37,-22.67,-23.19,0,*46
1530659115.67,16892,16.25,74090.5,0.37,-22.67,-23.13,0,*4F
1530659116.86,16893,16.25,74080.5,0.39,-22.63,-23.13,0,*44
1530659118.08,16894,16.25,74072.5,0.39,-22.57,-23.19,0,*4E
1530659119.3,16895,16.25,74084.0,0.37,-22.63,-23.13,0,*4C
1530659120.52,16896,16.31,74088.5,0.37,-22.53,-23.13,0,*4C
1530659121.74,16897,16.25,74090.3,0.37,-22.53,-23.13,0,*4D
1530659122.98,16898,16.25,74090.0,0.37,-22.67,-23.19,0,*4F
1530659124.22,16899,16.25,74096.3,0.37,-22.67,-23.19,0,*4E
1530659125.41,16900,16.31,74096.0,0.39,-22.63,-23.13,0,*4F
1530659126.67,16901,16.25,74096.0,0.37,-22.73,-23.19,0,*4B
1530659127.88,16902,16.25,74096.3,0.37,-22.63,-23.13,0,*43
1530659129.08,16903,16.25,74096.5,0.35,-22.63,-23.13,0,*40
1530659130.3,16904,16.31,74100.3,0.35,-22.67,-23.19,0,*49
1530659131.49,16905,16.31,74098.5,0.35,-22.67,-23.13,0,*42
1530659132.69,16906,16.25,74094.8,0.35,-22.67,-23.13,0,*41
1530659133.91,16907,16.25,74088.3,0.37,-22.53,-23.13,0,*45
1530659135.1,16908,16.25,74084.8,0.35,-22.63,-23.13,0,*4B
1530659136.34,16909,16.25,74086.5,0.33,-22.67,-23.23,0,*4B
1530659137.53,16910,16.25,74088.0,0.35,-22.63,-23.13,0,*42
1530659138.72,16911,16.25,74088.5,0.35,-22.63,-23.13,0,*43
1530659139.94,16912,16.25,74086.5,0.35,-22.63,-23.19,0,*4A
1530659141.22,16913,16.25,74084.3,0.33,-22.77,-23.19,0,*48
1530659142.48,16914,16.25,74086.3,0.33,-22.77,-23.29,0,*4C
1530659143.68,16915,16.25,74090.3,0.35,-22.67,-23.13,0,*43
1530659144.87,16916,16.31,74096.3,0.35,-22.63,-23.13,0,*44
1530659146.07,16917,16.25,74084.3,0.35,-22.37,-22.97,0,*49
1530659147.29,16918,16.25,74080.3,0.35,-22.31,-22.83,0,*45
1530659148.48,16919,16.31,74090.0,0.35,-22.07,-22.63,0,*4F
1530659149.7,16920,16.25,74088.3,0.35,-21.77,-22.31,0,*46
1530659150.92,16921,16.25,74082.5,0.35,-21.73,-22.21,0,*42
1530659152.15,16922,16.25,74080.5,0.35,-21.93,-22.47,0,*4F
1530659153.4,16923,16.31,74084.3,0.35,-21.87,-22.31,0,*4A
1530659154.62,16924,16.25,74078.5,0.37,-21.93,-22.53,0,*4E
1530659155.84,16925,16.25,74076.8,0.39,-22.31,-22.83,0,*47
1530659157.06,16926,16.25,74076.0,0.37,-22.53,-22.87,0,*4A
1530659158.28,16927,16.25,74078.5,0.39,-22.47,-22.97,0,*41
1530659159.53,16928,16.25,74078.8,0.37,-22.53,-23.03,0,*49
1530659160.77,16929,16.25,74082.0,0.37,-22.47,-22.97,0,*41
1530659161.99,16930,16.31,74082.0,0.37,-22.37,-22.87,0,*4F
1530659163.24,16931,16.25,74076.0,0.37,-22.53,-23.03,0,*41
1530659164.45,16932,16.25,74078.0,0.37,-22.63,-23.13,0,*40
1530659165.69,16933,16.25,74078.5,0.37,-22.63,-23.19,0,*4B
1530659166.91,16934,16.25,74082.8,0.37,-22.53,-23.13,0,*45
1530659168.15,16935,16.25,74084.0,0.37,-22.67,-23.19,0,*49
1530659169.36,16936,16.25,74082.3,0.37,-22.67,-23.13,0,*40
1530659170.6,16937,16.25,74088.0,0.37,-22.63,-23.03,0,*44
1530659171.82,16938,16.25,74094.3,0.37,-22.53,-23.13,0,*49
1530659173.07,16939,16.25,74088.8,0.37,-22.47,-22.97,0,*40
1530659174.29,16940,16.25,74086.3,0.35,-22.21,-22.83,0,*49
1530659175.51,16941,16.25,74078.5,0.35,-22.17,-22.67,0,*47
1530659176.76,16942,16.25,74078.0,0.37,-22.17,-22.67,0,*46
1530659178.0,16943,16.25,74082.8,0.37,-22.31,-22.87,0,*4D
1530659179.22,16944,16.25,74084.5,0.37,-22.37,-22.97,0,*4D
1530659180.43,16945,16.25,74082.5,0.37,-22.63,-23.13,0,*40
1530659181.64,16946,16.25,74080.3,0.37,-22.63,-23.13,0,*43
1530659182.88,16947,16.25,74084.8,0.37,-22.63,-23.03,0,*43
1530659184.12,16948,16.31,74086.3,0.37,-22.63,-23.03,0,*4C
1530659185.32,16949,16.25,74096.5,0.39,-22.57,-23.09,0,*4E
1530659186.57,16950,16.25,74096.3,0.37,-22.53,-23.03,0,*46
1530659187.81,16951,16.25,74090.5,0.37,-22.47,-22.97,0,*4E
1530659189.05,16952,16.25,74084.8,0.37,-22.63,-23.03,0,*47
1530659190.29,16953,16.25,74084.8,0.37,-22.63,-23.03,0,*46
1530659191.5,16954,16.25,74082.8,0.37,-22.63,-23.13,0,*40
1530659192.72,16955,16.25,74086.5,0.37,-22.37,-22.83,0,*48
1530659193.93,16956,16.25,74084.5,0.37,-22.37,-22.87,0,*4F
1530659195.2,16957,16.25,74084.0,0.37,-22.21,-22.73,0,*42
1530659196.44,16958,16.25,74080.5,0.37,-22.17,-22.67,0,*4D
1530659197.68,16959,16.25,74084.8,0.37,-22.31,-22.83,0,*42
1530659198.9,16960,16.25,74090.0,0.39,-22.27,-22.77,0,*4A
1530659200.14,16961,16.25,74082.8,0.37,-22.21,-22.83,0,*48
1530659201.39,16962,16.31,74090.8,0.37,-22.53,-23.03,0,*47
1530659202.63,16963,16.25,74094.8,0.37,-22.53,-23.03,0,*46
1530659203.85,16964,16.25,74088.3,0.37,-22.37,-22.87,0,*4E
1530659205.07,16965,16.25,74094.3,0.37,-22.37,-22.83,0,*4B
1530659206.28,16966,16.25,74072.8,0.39,-22.21,-22.67,0,*4B
1530659207.48,16967,16.25,74088.0,0.39,-22.41,-22.97,0,*43
1530659208.71,16968,16.25,74090.5,0.37,-22.63,-23.03,0,*4E
1530659209.94,16969,16.25,74086.3,0.39,-22.47,-22.97,0,*4B
1530659211.19,16970,16.25,74086.0,0.37,-22.53,-23.03,0,*44
1530659212.43,16971,16.25,74086.0,0.37,-22.53,-23.03,0,*45
1530659213.68,16972,16.25,74086.5,0.37,-22.53,-23.03,0,*46
1530659214.9,16973,16.25,74084.8,0.37,-22.53,-23.13,0,*46
1530659216.12,16974,16.25,74084.0,0.37,-22.53,-23.13,0,*41
1530659217.34,16975,16.25,74078.5,0.37,-22.37,-22.87,0,*4E
1530659218.58,16976,16.25,74076.3,0.37,-22.53,-23.03,0,*42
1530659219.85,16977,16.25,74080.5,0.37,-22.47,-23.03,0,*46
1530659221.07,16978,16.25,74080.5,0.37,-22.37,-22.87,0,*43
1530659222.32,16979,16.25,74076.5,0.37,-22.53,-23.03,0,*4D
1530659223.53,16980,16.25,74072.3,0.39,-22.63,-23.03,0,*46
1530659224.76,16981,16.25,74080.5,0.39,-22.47,-22.93,0,*49
1530659225.97,16982,16.25,74076.5,0.37,-22.63,-23.13,0,*4B
1530659227.18,16983,16.25,74076.3,0.37,-22.63,-23.13,0,*4A
1530659228.39,16984,16.25,74074.5,0.37,-22.63,-23.13,0,*4D
1530659229.63,16985,16.25,74078.3,0.37,-22.67,-23.19,0,*42
1530659230.9,16986,16.25,74080.5,0.37,-22.73,-23.19,0,*44
1530659232.12,16987,16.25,74088.3,0.35,-22.67,-23.19,0,*42
1530659233.31,16988,16.25,74088.0,0.35,-22.67,-23.13,0,*47
1530659234.54,16989,16.25,74086.8,0.35,-22.53,-23.03,0,*40
1530659235.76,16990,16.25,74084.0,0.35,-22.21,-22.83,0,*44
1530659236.98,16991,16.25,74078.5,0.35,-22.31,-22.83,0,*44
1530659238.2,16992,16.25,74078.3,0.35,-22.21,-22.83,0,*46
1530659239.44,16993,16.25,74080.3,0.37,-22.31,-22.83,0,*44
1530659240.68,16994,16.25,74088.3,0.37,-22.31,-22.87,0,*47
1530659241.9,16995,16.25,74086.5,0.37,-22.53,-22.97,0,*43
1530659243.18,16996,16.25,74088.8,0.37,-22.47,-23.03,0,*49
1530659244.39,16997,16.25,74084.5,0.37,-22.37,-22.97,0,*43
1530659245.61,16998,16.25,74086.0,0.39,-22.31,-22.83,0,*41
1530659246.83,16999,16.25,74084.5,0.37,-22.37,-22.97,0,*4D
1530659248.05,17000,16.25,74084.3,0.37,-22.37,-22.87,0,*44
1530659249.27,17001,16.25,74084.3,0.37,-22.53,-22.97,0,*46
1530659250.5,17002,16.25,74084.3,0.35,-22.47,-22.97,0,*42
1530659251.72,17003,16.25,74084.8,0.35,-22.37,-23.03,0,*48
1530659252.96,17004,16.25,74088.8,0.37,-22.63,-23.03,0,*4C
1530659254.2,17005,16.25,74092.8,0.37,-22.47,-22.97,0,*47
1530659255.47,17006,16.25,74086.8,0.37,-22.47,-23.03,0,*48
1530659256.72,17007,16.25,74086.3,0.37,-22.47,-22.93,0,*41
1530659257.95,17008,16.25,74086.8,0.37,-22.53,-22.97,0,*4F
1530659259.19,17009,16.25,74086.3,0.37,-22.53,-23.03,0,*42
1530659260.42,17010,16.25,74086.0,0.39,-22.47,-22.97,0,*4D
1530659261.66,17011,16.25,74092.0,0.37,-22.47,-22.97,0,*42
1530659262.88,17012,16.25,74088.5,0.37,-22.63,-22.97,0,*47
1530659264.12,17013,16.25,74086.5,0.37,-22.63,-23.03,0,*4A
1530659265.34,17014,16.25,74088.0,0.37,-22.53,-22.97,0,*42
1530659266.56,17015,16.25,74086.8,0.37,-22.37,-22.97,0,*41
1530659267.81,17016,16.25,74088.5,0.37,-22.53,-23.03,0,*4C
1530659269.02,17017,16.25,74084.0,0.37,-22.67,-23.13,0,*4B
1530659270.26,17018,16.25,74078.3,0.37,-22.67,-23.19,0,*4E
1530659271.5,17019,16.25,74086.5,0.37,-22.67,-23.19,0,*4F
1530659272.7,17020,16.25,74090.3,0.35,-22.67,-23.13,0,*4D
1530659273.89,17021,16.25,74094.0,0.35,-22.63,-23.13,0,*48
1530659275.11,17022,16.25,74090.0,0.35,-22.53,-23.03,0,*49
1530659276.36,17023,16.25,74092.3,0.33,-22.53,-23.03,0,*4E
1530659277.58,17024,16.25,74088.0,0.35,-22.63,-23.03,0,*4C
1530659278.8,17025,16.25,74094.0,0.35,-22.63,-23.03,0,*4D
1530659280.02,17026,16.25,74094.0,0.35,-22.63,-23.03,0,*4E
1530659281.23,17027,16.25,74088.8,0.35,-22.63,-23.03,0,*4F
1530659282.46,17028,16.25,74088.8,0.35,-22.53,-23.03,0,*43
1530659283.68,17029,16.25,74084.5,0.35,-22.63,-23.03,0,*41
1530659284.9,17030,16.25,74094.5,0.35,-22.63,-23.03,0,*49
1530659286.12,17031,16.25,74098.3,0.33,-22.57,-23.09,0,*43
1530659287.31,17032,16.25,74092.8,0.35,-22.63,-23.13,0,*4A
1530659288.5,17033,16.25,74090.0,0.35,-22.63,-23.13,0,*4B
1530659289.7,17034,16.25,74092.5,0.35,-22.63,-23.13,0,*4C
1530659290.92,17035,16.25,74094.5,0.35,-22.67,-23.19,0,*43
1530659292.15,17036,16.25,74094.3,0.33,-22.73,-23.39,0,*41
1530659293.4,17037,16.25,74088.5,0.33,-22.57,-23.19,0,*44
1530659294.62,17038,16.25,74094.5,0.35,-22.63,-23.03,0,*41
1530659295.83,17039,16.25,74088.0,0.33,-22.41,-23.09,0,*4C
1530659297.08,17040,16.25,74092.0,0.33,-22.53,-23.03,0,*4B
1530659298.31,17041,16.25,74090.8,0.35,-22.53,-23.03,0,*4C